Weather History for K1YT - December, 2013

Change the Weather History Date:

Wednesday, December 11, 2013

  Actual Average (KYKM) Record (KYKM)
Temperature  
Mean Temperature 20 °F 29 °F  
Max Temperature 28 °F 36 °F 59 °F (2004)
Min Temperature 11 °F 21 °F -3 °F (2009)
Degree Days  
Heating Degree Days 46 36  
Month to date heating degree days 384  
Since 1 July heating degree days 1917  
Cooling Degree Days 0 0  
Month to date cooling degree days 0  
Year to date cooling degree days 472  
Moisture  
Dew Point 14 °F    
Average Humidity 76    
Maximum Humidity 88    
Minimum Humidity 59    
Precipitation  
Precipitation 0.00 in 0.05 in 0.65 in (2010)
Month to date precipitation 0.53  
Year to date precipitation 7.25  
Snow  
Snow 0.00 in 0.40 in 5.90 in (2010)
Month to date snowfall 3.2  
Year to date snowfall 15.4  
Since 1 July snowfall 6.8  
Snow Depth -    
Sea Level Pressure  
Sea Level Pressure 30.39 in    
Wind  
Wind Speed 2 mph (SSW)    
Max Wind Speed 6 mph    
Max Gust Speed -    
Visibility 12 miles    
Events      
T = Trace of Precipitation, MM = Missing Value Source: NWS Daily Summary

Daily Weather History Graph

Daily Weather History Graph

Search for Another Location

Airport or City:

Trip Planner

Search our weather history database for the weather conditions in past years. The results will help you decide how hot, cold, wet, or windy it might be!

Date:

Astronomy

Dec. 11, 2013 Rise Set
Actual Time 7:36 AM PST 4:13 PM PST
Civil Twilight 7:01 AM PST 4:48 PM PST
Nautical Twilight 6:23 AM PST 5:27 PM PST
Astronomical Twilight 5:46 AM PST 6:04 PM PST
Moon 1:05 PM PST (12/11) 1:46 AM PST (12/11)
Length of Visible Light 9h 47m
Length of Day
8h 37m
Waxing Gibbous, 72% of the Moon is Illuminated
Dec 11
Waxing Gibbous
Dec 17
Full
Dec 25
Last Quarter
Jan 1
New
Jan 7
First Quarter

Hourly Weather History & Observations

Time (PST) Temp. Windchill Dew Point Humidity Pressure Visibility Wind Dir Wind Speed Gust Speed Precip Events Conditions
12:56 AM 15.6 °F - 10.0 °F 79% 30.41 in 12.0 mi ESE 1.2 mph - N/A   Clear
1:56 AM 17.1 °F - 10.0 °F 74% 30.42 in 12.0 mi WNW 2.3 mph - N/A   Clear
2:56 AM 13.3 °F - 9.9 °F 86% 30.43 in 12.0 mi Variable 1.2 mph - N/A   Clear
3:56 AM 13.5 °F 7.5 °F 9.3 °F 84% 30.43 in 12.0 mi WSW 3.5 mph - N/A   Clear
4:56 AM 14.0 °F - 10.0 °F 84% 30.42 in 12.0 mi West 1.2 mph - N/A   Clear
5:56 AM 12.6 °F - 8.4 °F 83% 30.42 in 12.0 mi SW 2.3 mph - N/A   Clear
6:56 AM 11.3 °F - 8.4 °F 88% 30.42 in 12.0 mi ESE 1.2 mph - N/A   Clear
7:56 AM 11.7 °F - 8.2 °F 86% 30.42 in 11.0 mi Calm Calm - N/A   Clear
8:56 AM 15.4 °F - 11.3 °F 84% 30.43 in 12.0 mi Variable 1.2 mph - N/A   Clear
9:56 AM 18.5 °F - 13.3 °F 80% 30.44 in 12.0 mi Variable 1.2 mph - N/A   Partly Cloudy
10:56 AM 20.5 °F - 13.5 °F 74% 30.44 in 12.0 mi Variable 1.2 mph - N/A   Partly Cloudy
11:56 AM 24.6 °F - 14.5 °F 66% 30.41 in 12.0 mi Variable 2.3 mph - N/A   Clear
12:56 PM 26.8 °F - 14.2 °F 59% 30.39 in 12.0 mi Variable 2.3 mph - N/A   Clear
1:56 PM 28.0 °F 24.2 °F 17.4 °F 64% 30.39 in 12.0 mi WNW 3.5 mph - N/A   Clear
2:56 PM 28.2 °F 24.4 °F 18.0 °F 65% 30.37 in 12.0 mi WNW 3.5 mph - N/A   Clear
3:56 PM 28.0 °F - 17.8 °F 65% 30.37 in 12.0 mi Calm Calm - N/A   Mostly Cloudy
4:56 PM 24.4 °F - 16.9 °F 73% 30.36 in 12.0 mi WSW 2.3 mph - N/A   Scattered Clouds
5:56 PM 26.2 °F - 17.6 °F 70% 30.35 in 12.0 mi WSW 1.2 mph - N/A   Overcast
6:56 PM 25.9 °F 21.7 °F 17.6 °F 71% 30.34 in 12.0 mi ESE 3.5 mph - N/A   Overcast
7:56 PM 23.7 °F 16.6 °F 16.7 °F 75% 30.34 in 12.0 mi ESE 5.8 mph - N/A   Mostly Cloudy
8:56 PM 23.9 °F - 16.9 °F 75% 30.34 in 12.0 mi Variable 1.2 mph - N/A   Mostly Cloudy
9:56 PM 21.6 °F - 16.2 °F 80% 30.33 in 12.0 mi South 2.3 mph - N/A   Partly Cloudy
10:56 PM 22.3 °F - 15.6 °F 76% 30.32 in 12.0 mi South 2.3 mph - N/A   Mostly Cloudy
11:56 PM 21.2 °F - 16.0 °F 80% 30.31 in 12.0 mi SSW 1.2 mph - N/A   Mostly Cloudy